This is the latest recevied weather packets stored in our database for station/object K5OLV. If no packets are shown the sender has not sent any weather packets the latest 10 day(s).
| Time | Temp. | Humidity | Pressure | Rain* | Wind** | Luminosity | Snow |
|---|---|---|---|---|---|---|---|
| 1788269881 | 27.22° C | 69% | 1020 hPa | 0 mm | - | 291 W/m² | - |
| 1788269580 | 26.11° C | 73% | 1020.1 hPa | 0 mm | - | 279 W/m² | - |
| 1788269279 | 26.11° C | 80% | 1020 hPa | 0 mm | - | 250 W/m² | - |
| 1788268974 | 25.56° C | 84% | 1019.9 hPa | 0 mm | - | 250 W/m² | - |
| 1788268668 | 25° C | 88% | 1019.9 hPa | 0 mm | - | 235 W/m² | - |
| 1788268368 | 23.89° C | 91% | 1019.8 hPa | 0 mm | - | 204 W/m² | - |
| 1788268064 | 22.78° C | 93% | 1019.9 hPa | 0 mm | - | 197 W/m² | - |
| 1788267763 | 22.78° C | 93% | 1019.8 hPa | 0 mm | - | 62 W/m² | - |
| 1788267461 | 22.78° C | 93% | 1019.9 hPa | 0 mm | - | 55 W/m² | - |
| 1788267156 | 22.22° C | 93% | 1019.8 hPa | 0 mm | - | 66 W/m² | - |
| 1788266850 | 22.22° C | 93% | 1019.7 hPa | 0 mm | - | 54 W/m² | - |
| 1788266545 | 22.22° C | 93% | 1019.8 hPa | 0 mm | - | 50 W/m² | - |
| 1788266244 | 21.67° C | 93% | 1019.8 hPa | 0 mm | - | 46 W/m² | - |
| 1788265940 | 21.67° C | 93% | 1019.7 hPa | 0 mm | - | 44 W/m² | - |
| 1788265638 | 21.67° C | 93% | 1019.6 hPa | 0 mm | - | 42 W/m² | - |
| 1788265334 | 21.67° C | 92% | 1019.6 hPa | 0 mm | - | 40 W/m² | - |
| 1788265027 | 21.67° C | 92% | 1019.4 hPa | 0 mm | - | 37 W/m² | - |
| 1788264723 | 21.11° C | 91% | 1019.3 hPa | 0 mm | - | 35 W/m² | - |
| 1788264422 | 21.11° C | 91% | 1019.3 hPa | 0 mm | - | 32 W/m² | - |
| 1788264117 | 21.11° C | 90% | 1019.2 hPa | 0 mm | - | 30 W/m² | - |
| 1788263812 | 21.11° C | 91% | 1019.1 hPa | 0 mm | - | 26 W/m² | - |
| 1788263509 | 21.11° C | 90% | 1019.1 hPa | 0 mm | - | 23 W/m² | - |
| 1788263205 | 21.11° C | 90% | 1019.2 hPa | 0 mm | - | 19 W/m² | - |
| 1788262905 | 21.11° C | 91% | 1018.8 hPa | 0 mm | - | 17 W/m² | - |
| 1788262603 | 20.56° C | 91% | 1018.9 hPa | 0 mm | - | 13 W/m² | - |
* Rain latest hour (hover to see other rain measurements)
** Current wind speed in m/s (hover to see current wind gust speed)